^^
Station Historical Data
Daily Summary for April 6, 2019 Units:  English    Metric   Both
« Previous Day
Next Day »
Daily Weekly Monthly Yearly Custom
  High: Low: Average:
Temperature: 49.3 °F 34.2 °F 40.4 °F
Dew Point: 46.7 °F 33.2 °F 39.2 °F
Humidity: 97% 88% 95%
Wind Speed: 20.0mph 0.0mph 9.6mph
Wind Gust: 24.0mph - -
Wind- - East
Pressure: 29.87 in 29.69 in -
Precipitation: 0.07 in    
Historical Graphs
 
 
Tabular Data for April 6, 2019
Time Temperature Dew Point Pressure Wind Wind Speed Wind Gust Humidity Rainfall Rate (Hourly) solar Conditions
00:04 36.7 °F 35.4 °F 29.87 in East 10.0 mph 15.0 mph 95% 0.00 in 0.00 W/m2
00:09 36.6 °F 35.3 °F 29.87 in East 10.0 mph 16.0 mph 95% 0.00 in 0.00 W/m2
00:14 36.5 °F 35.2 °F 29.87 in East 14.0 mph 19.0 mph 95% 0.00 in 0.00 W/m2
00:19 36.4 °F 35.1 °F 29.87 in East 14.0 mph 20.0 mph 95% 0.00 in 0.00 W/m2
00:24 36.3 °F 35.0 °F 29.86 in East 11.0 mph 20.0 mph 95% 0.00 in 0.00 W/m2
00:29 36.2 °F 34.9 °F 29.86 in East 10.0 mph 22.0 mph 95% 0.00 in 0.00 W/m2
00:34 36.1 °F 34.8 °F 29.86 in East 13.0 mph 22.0 mph 95% 0.00 in 0.00 W/m2
00:39 36.1 °F 34.8 °F 29.86 in East 14.0 mph 17.0 mph 95% 0.00 in 0.00 W/m2
00:44 36.0 °F 34.7 °F 29.86 in East 13.0 mph 17.0 mph 95% 0.00 in 0.00 W/m2
00:49 36.0 °F 35.0 °F 29.86 in ENE 9.0 mph 17.0 mph 96% 0.00 in 0.00 W/m2
00:54 36.0 °F 35.0 °F 29.86 in ENE 9.0 mph 17.0 mph 96% 0.00 in 0.00 W/m2
00:59 35.9 °F 34.9 °F 29.86 in ENE 7.0 mph 15.0 mph 96% 0.00 in 0.00 W/m2
01:04 35.9 °F 34.6 °F 29.86 in ENE 9.0 mph 14.0 mph 95% 0.00 in 0.00 W/m2
01:09 35.9 °F 34.6 °F 29.86 in East 9.0 mph 15.0 mph 95% 0.00 in 0.00 W/m2
01:14 35.9 °F 34.6 °F 29.86 in East 7.0 mph 15.0 mph 95% 0.00 in 0.00 W/m2
01:19 35.8 °F 34.8 °F 29.86 in ENE 10.0 mph 13.0 mph 96% 0.00 in 0.00 W/m2
01:24 35.8 °F 34.8 °F 29.86 in East 8.0 mph 14.0 mph 96% 0.00 in 0.00 W/m2
01:29 35.8 °F 34.8 °F 29.86 in East 9.0 mph 14.0 mph 96% 0.00 in 0.00 W/m2
01:34 35.7 °F 34.7 °F 29.86 in East 9.0 mph 15.0 mph 96% 0.01 in 0.00 W/m2
01:39 35.6 °F 34.6 °F 29.86 in ENE 12.0 mph 17.0 mph 96% 0.01 in 0.00 W/m2
01:44 35.6 °F 34.6 °F 29.86 in ENE 8.0 mph 19.0 mph 96% 0.01 in 0.00 W/m2
01:49 35.5 °F 34.5 °F 29.86 in NE 10.0 mph 19.0 mph 96% 0.01 in 0.00 W/m2
01:54 35.5 °F 34.5 °F 29.85 in ENE 11.0 mph 19.0 mph 96% 0.01 in 0.00 W/m2
01:59 35.4 °F 34.4 °F 29.85 in ENE 12.0 mph 19.0 mph 96% 0.01 in 0.00 W/m2
02:04 35.3 °F 34.3 °F 29.85 in East 11.0 mph 17.0 mph 96% 0.01 in 0.00 W/m2
02:09 35.3 °F 34.3 °F 29.85 in East 10.0 mph 17.0 mph 96% 0.01 in 0.00 W/m2
02:14 35.2 °F 34.2 °F 29.85 in ENE 7.0 mph 15.0 mph 96% 0.01 in 0.00 W/m2
02:19 35.2 °F 34.2 °F 29.86 in East 9.0 mph 17.0 mph 96% 0.01 in 0.00 W/m2
02:24 35.1 °F 34.1 °F 29.85 in ENE 9.0 mph 17.0 mph 96% 0.01 in 0.00 W/m2
02:29 35.1 °F 34.1 °F 29.85 in ENE 13.0 mph 18.0 mph 96% 0.01 in 0.00 W/m2
02:34 35.0 °F 34.0 °F 29.84 in ENE 16.0 mph 18.0 mph 96% 0.01 in 0.00 W/m2
02:39 35.0 °F 34.0 °F 29.84 in East 14.0 mph 17.0 mph 96% 0.01 in 0.00 W/m2
02:44 35.0 °F 34.0 °F 29.84 in East 9.0 mph 18.0 mph 96% 0.01 in 0.00 W/m2
02:49 34.9 °F 33.9 °F 29.84 in East 13.0 mph 19.0 mph 96% 0.01 in 0.00 W/m2
02:54 34.9 °F 33.9 °F 29.84 in ENE 13.0 mph 19.0 mph 96% 0.01 in 0.00 W/m2
02:59 34.8 °F 33.8 °F 29.84 in East 9.0 mph 18.0 mph 96% 0.01 in 0.00 W/m2
03:04 34.8 °F 33.8 °F 29.84 in East 9.0 mph 18.0 mph 96% 0.01 in 0.00 W/m2
03:09 34.8 °F 33.8 °F 29.84 in East 9.0 mph 18.0 mph 96% 0.01 in 0.00 W/m2
03:14 34.8 °F 33.8 °F 29.84 in East 11.0 mph 14.0 mph 96% 0.01 in 0.00 W/m2
03:19 34.7 °F 33.7 °F 29.85 in East 9.0 mph 14.0 mph 96% 0.01 in 0.00 W/m2
03:24 34.7 °F 33.7 °F 29.85 in East 8.0 mph 15.0 mph 96% 0.01 in 0.00 W/m2
03:29 34.6 °F 33.6 °F 29.84 in East 10.0 mph 15.0 mph 96% 0.01 in 0.00 W/m2
03:34 34.6 °F 33.6 °F 29.84 in East 10.0 mph 15.0 mph 96% 0.00 in 0.00 W/m2
03:39 34.6 °F 33.6 °F 29.85 in East 6.0 mph 15.0 mph 96% 0.00 in 0.00 W/m2
03:44 34.5 °F 33.5 °F 29.85 in ENE 9.0 mph 14.0 mph 96% 0.00 in 0.00 W/m2
03:49 34.4 °F 33.4 °F 29.84 in ENE 13.0 mph 16.0 mph 96% 0.00 in 0.00 W/m2
03:54 34.4 °F 33.4 °F 29.84 in East 15.0 mph 17.0 mph 96% 0.00 in 0.00 W/m2
03:59 34.3 °F 33.3 °F 29.84 in East 10.0 mph 17.0 mph 96% 0.00 in 0.00 W/m2
04:04 34.3 °F 33.3 °F 29.84 in ENE 8.0 mph 16.0 mph 96% 0.00 in 0.00 W/m2
04:09 34.3 °F 33.3 °F 29.84 in NE 7.0 mph 13.0 mph 96% 0.00 in 0.00 W/m2
04:14 34.3 °F 33.3 °F 29.83 in NE 9.0 mph 16.0 mph 96% 0.00 in 0.00 W/m2
04:19 34.3 °F 33.3 °F 29.83 in ESE 9.0 mph 16.0 mph 96% 0.00 in 0.00 W/m2
04:24 34.2 °F 33.2 °F 29.83 in East 18.0 mph 18.0 mph 96% 0.00 in 0.00 W/m2
04:29 34.3 °F 33.3 °F 29.83 in East 11.0 mph 18.0 mph 96% 0.00 in 0.00 W/m2
04:34 34.3 °F 33.3 °F 29.83 in East 18.0 mph 18.0 mph 96% 0.00 in 0.00 W/m2
04:39 34.3 °F 33.3 °F 29.83 in East 14.0 mph 18.0 mph 96% 0.00 in 0.00 W/m2
04:44 34.4 °F 33.4 °F 29.83 in East 9.0 mph 18.0 mph 96% 0.01 in 0.00 W/m2
04:49 34.4 °F 33.4 °F 29.84 in ESE 12.0 mph 18.0 mph 96% 0.01 in 0.00 W/m2
04:54 34.4 °F 33.4 °F 29.84 in East 10.0 mph 18.0 mph 96% 0.01 in 0.00 W/m2
04:59 34.4 °F 33.4 °F 29.84 in East 14.0 mph 16.0 mph 96% 0.01 in 0.00 W/m2
05:04 34.4 °F 33.4 °F 29.83 in ENE 9.0 mph 16.0 mph 96% 0.01 in 0.00 W/m2
05:09 34.3 °F 33.3 °F 29.83 in ENE 10.0 mph 16.0 mph 96% 0.01 in 0.00 W/m2
05:14 34.4 °F 33.4 °F 29.83 in East 11.0 mph 16.0 mph 96% 0.01 in 0.00 W/m2
05:19 34.4 °F 33.4 °F 29.83 in East 13.0 mph 17.0 mph 96% 0.01 in 0.00 W/m2
05:24 34.5 °F 33.5 °F 29.83 in East 13.0 mph 17.0 mph 96% 0.01 in 0.00 W/m2
05:29 34.5 °F 33.5 °F 29.82 in East 15.0 mph 16.0 mph 96% 0.01 in 0.00 W/m2
05:34 34.5 °F 33.5 °F 29.82 in East 10.0 mph 19.0 mph 96% 0.01 in 0.00 W/m2
05:39 34.5 °F 33.5 °F 29.82 in ENE 9.0 mph 19.0 mph 96% 0.01 in 0.00 W/m2
05:44 34.5 °F 33.5 °F 29.82 in East 13.0 mph 17.0 mph 96% 0.00 in 0.00 W/m2
05:49 34.5 °F 33.5 °F 29.82 in East 11.0 mph 17.0 mph 96% 0.00 in 0.00 W/m2
05:54 34.5 °F 33.5 °F 29.82 in East 8.0 mph 13.0 mph 96% 0.00 in 0.00 W/m2
05:59 34.4 °F 33.4 °F 29.82 in ENE 13.0 mph 14.0 mph 96% 0.00 in 0.00 W/m2
06:04 34.5 °F 33.5 °F 29.82 in East 9.0 mph 17.0 mph 96% 0.00 in 0.00 W/m2
06:09 34.4 °F 33.4 °F 29.81 in ENE 10.0 mph 17.0 mph 96% 0.00 in 0.00 W/m2
06:14 34.4 °F 33.4 °F 29.81 in ENE 8.0 mph 20.0 mph 96% 0.00 in 0.00 W/m2
06:19 34.5 °F 33.5 °F 29.81 in East 11.0 mph 20.0 mph 96% 0.00 in 0.00 W/m2
06:24 34.6 °F 33.6 °F 29.82 in East 11.0 mph 20.0 mph 96% 0.00 in 0.00 W/m2
06:29 34.7 °F 33.7 °F 29.82 in East 11.0 mph 20.0 mph 96% 0.00 in 0.00 W/m2
06:34 34.8 °F 33.8 °F 29.82 in ENE 10.0 mph 14.0 mph 96% 0.00 in 0.00 W/m2
06:39 34.9 °F 33.9 °F 29.82 in ENE 11.0 mph 14.0 mph 96% 0.00 in 0.00 W/m2
06:44 35.0 °F 34.0 °F 29.81 in ENE 13.0 mph 16.0 mph 96% 0.01 in 0.00 W/m2
06:49 35.1 °F 34.1 °F 29.81 in NE 7.0 mph 19.0 mph 96% 0.01 in 0.00 W/m2
06:54 35.1 °F 34.1 °F 29.81 in ENE 11.0 mph 19.0 mph 96% 0.01 in 0.00 W/m2
06:59 35.2 °F 34.2 °F 29.81 in NE 8.0 mph 18.0 mph 96% 0.01 in 0.00 W/m2
07:04 35.2 °F 34.4 °F 29.81 in ENE 9.0 mph 18.0 mph 97% 0.01 in 0.00 W/m2
07:09 35.3 °F 34.5 °F 29.81 in ENE 10.0 mph 17.0 mph 97% 0.01 in 0.00 W/m2
07:14 35.3 °F 34.5 °F 29.81 in East 16.0 mph 17.0 mph 97% 0.01 in 0.00 W/m2
07:19 35.4 °F 34.6 °F 29.81 in ESE 14.0 mph 20.0 mph 97% 0.01 in 5.00 W/m2
07:24 35.3 °F 34.5 °F 29.81 in East 11.0 mph 20.0 mph 97% 0.01 in 7.00 W/m2
07:29 35.3 °F 34.5 °F 29.81 in East 11.0 mph 18.0 mph 97% 0.01 in 9.00 W/m2
07:34 35.3 °F 34.5 °F 29.81 in NNE 10.0 mph 18.0 mph 97% 0.01 in 11.00 W/m2
07:39 35.4 °F 34.6 °F 29.82 in East 9.0 mph 18.0 mph 97% 0.01 in 11.00 W/m2
07:44 35.5 °F 34.7 °F 29.83 in East 10.0 mph 15.0 mph 97% 0.00 in 11.00 W/m2
07:49 35.5 °F 34.7 °F 29.83 in ESE 8.0 mph 15.0 mph 97% 0.00 in 11.00 W/m2
07:54 35.5 °F 34.7 °F 29.82 in East 6.0 mph 11.0 mph 97% 0.00 in 11.00 W/m2
07:59 35.5 °F 34.7 °F 29.82 in East 11.0 mph 13.0 mph 97% 0.00 in 11.00 W/m2
08:04 35.5 °F 34.7 °F 29.82 in ESE 7.0 mph 16.0 mph 97% 0.00 in 12.00 W/m2
08:09 35.5 °F 34.7 °F 29.82 in ESE 9.0 mph 16.0 mph 97% 0.00 in 12.00 W/m2
08:14 35.6 °F 34.6 °F 29.82 in East 11.0 mph 16.0 mph 96% 0.00 in 14.00 W/m2
08:19 35.6 °F 34.6 °F 29.82 in ESE 8.0 mph 15.0 mph 96% 0.00 in 14.00 W/m2
08:24 35.7 °F 34.7 °F 29.82 in SE 8.0 mph 15.0 mph 96% 0.00 in 18.00 W/m2
08:29 35.7 °F 34.7 °F 29.82 in ESE 8.0 mph 13.0 mph 96% 0.00 in 18.00 W/m2
08:34 35.8 °F 34.8 °F 29.82 in ESE 8.0 mph 13.0 mph 96% 0.00 in 23.00 W/m2
08:39 35.9 °F 34.9 °F 29.82 in East 11.0 mph 15.0 mph 96% 0.00 in 26.00 W/m2
08:44 36.0 °F 35.2 °F 29.82 in ESE 5.0 mph 15.0 mph 97% 0.00 in 23.00 W/m2
08:49 36.0 °F 35.2 °F 29.82 in ESE 8.0 mph 15.0 mph 97% 0.00 in 28.00 W/m2
08:54 36.1 °F 35.3 °F 29.82 in ESE 2.0 mph 13.0 mph 97% 0.00 in 26.00 W/m2
08:59 36.2 °F 35.4 °F 29.82 in ESE 8.0 mph 12.0 mph 97% 0.00 in 23.00 W/m2
09:04 36.2 °F 35.4 °F 29.82 in ESE 10.0 mph 14.0 mph 97% 0.00 in 23.00 W/m2
09:09 36.2 °F 35.4 °F 29.81 in East 10.0 mph 15.0 mph 97% 0.00 in 30.00 W/m2
09:14 36.2 °F 35.4 °F 29.81 in ESE 11.0 mph 19.0 mph 97% 0.00 in 37.00 W/m2
09:19 36.3 °F 35.5 °F 29.80 in East 6.0 mph 19.0 mph 97% 0.00 in 44.00 W/m2
09:24 36.4 °F 35.6 °F 29.81 in SE 7.0 mph 19.0 mph 97% 0.00 in 28.00 W/m2
09:29 36.4 °F 35.6 °F 29.80 in East 10.0 mph 15.0 mph 97% 0.00 in 46.00 W/m2
09:34 36.4 °F 35.6 °F 29.79 in East 11.0 mph 15.0 mph 97% 0.00 in 47.00 W/m2
09:39 36.5 °F 35.7 °F 29.79 in East 9.0 mph 17.0 mph 97% 0.00 in 63.00 W/m2
09:44 36.7 °F 35.9 °F 29.79 in ENE 11.0 mph 18.0 mph 97% 0.00 in 56.00 W/m2
09:49 36.7 °F 35.9 °F 29.79 in ESE 9.0 mph 18.0 mph 97% 0.00 in 42.00 W/m2
09:54 36.8 °F 36.0 °F 29.80 in ESE 10.0 mph 18.0 mph 97% 0.00 in 42.00 W/m2
09:59 36.9 °F 36.1 °F 29.80 in East 14.0 mph 18.0 mph 97% 0.00 in 40.00 W/m2
10:04 37.0 °F 36.2 °F 29.80 in East 14.0 mph 22.0 mph 97% 0.00 in 42.00 W/m2
10:09 37.1 °F 36.3 °F 29.79 in ESE 11.0 mph 22.0 mph 97% 0.00 in 42.00 W/m2
10:14 37.1 °F 36.3 °F 29.80 in East 9.0 mph 22.0 mph 97% 0.00 in 42.00 W/m2
10:19 37.1 °F 36.3 °F 29.79 in East 11.0 mph 19.0 mph 97% 0.00 in 44.00 W/m2
10:24 37.1 °F 36.3 °F 29.79 in East 14.0 mph 19.0 mph 97% 0.00 in 58.00 W/m2
10:29 37.2 °F 36.4 °F 29.79 in East 16.0 mph 20.0 mph 97% 0.00 in 63.00 W/m2
10:34 37.1 °F 36.3 °F 29.78 in ENE 11.0 mph 20.0 mph 97% 0.00 in 72.00 W/m2
10:39 37.1 °F 36.3 °F 29.78 in East 15.0 mph 22.0 mph 97% 0.00 in 72.00 W/m2
10:44 37.2 °F 36.4 °F 29.78 in East 14.0 mph 22.0 mph 97% 0.00 in 62.00 W/m2
10:49 37.3 °F 36.5 °F 29.78 in ESE 11.0 mph 22.0 mph 97% 0.00 in 58.00 W/m2
10:54 37.4 °F 36.6 °F 29.78 in East 11.0 mph 19.0 mph 97% 0.00 in 67.00 W/m2
10:59 37.5 °F 36.7 °F 29.79 in East 15.0 mph 22.0 mph 97% 0.00 in 53.00 W/m2
11:04 37.5 °F 36.7 °F 29.78 in East 9.0 mph 22.0 mph 97% 0.00 in 70.00 W/m2
11:09 37.7 °F 36.9 °F 29.77 in East 15.0 mph 23.0 mph 97% 0.00 in 98.00 W/m2
11:14 37.8 °F 37.0 °F 29.77 in East 15.0 mph 23.0 mph 97% 0.00 in 118.00 W/m2
11:19 38.1 °F 37.3 °F 29.77 in East 14.0 mph 23.0 mph 97% 0.00 in 114.00 W/m2
11:24 38.2 °F 37.4 °F 29.77 in ESE 17.0 mph 23.0 mph 97% 0.01 in 111.00 W/m2
11:29 38.4 °F 37.6 °F 29.77 in ENE 14.0 mph 23.0 mph 97% 0.01 in 137.00 W/m2
11:34 38.5 °F 37.7 °F 29.76 in East 14.0 mph 23.0 mph 97% 0.01 in 127.00 W/m2
11:39 38.8 °F 38.0 °F 29.77 in East 17.0 mph 22.0 mph 97% 0.01 in 148.00 W/m2
11:44 38.8 °F 38.0 °F 29.76 in East 16.0 mph 23.0 mph 97% 0.01 in 188.00 W/m2
11:49 39.1 °F 38.3 °F 29.75 in ESE 15.0 mph 23.0 mph 97% 0.01 in 200.00 W/m2
11:54 39.4 °F 38.6 °F 29.76 in ESE 17.0 mph 23.0 mph 97% 0.01 in 183.00 W/m2
11:59 39.4 °F 38.6 °F 29.76 in ESE 10.0 mph 23.0 mph 97% 0.01 in 148.00 W/m2
12:04 39.4 °F 38.6 °F 29.76 in ESE 13.0 mph 20.0 mph 97% 0.01 in 144.00 W/m2
12:09 39.2 °F 38.4 °F 29.76 in ESE 10.0 mph 20.0 mph 97% 0.01 in 163.00 W/m2
12:14 39.4 °F 38.6 °F 29.76 in East 15.0 mph 22.0 mph 97% 0.01 in 134.00 W/m2
12:19 39.6 °F 38.8 °F 29.76 in East 17.0 mph 22.0 mph 97% 0.01 in 185.00 W/m2
12:24 39.8 °F 39.0 °F 29.75 in East 15.0 mph 22.0 mph 97% 0.00 in 207.00 W/m2
12:29 40.1 °F 39.3 °F 29.75 in East 10.0 mph 22.0 mph 97% 0.00 in 206.00 W/m2
12:34 40.2 °F 39.4 °F 29.75 in East 19.0 mph 22.0 mph 97% 0.00 in 197.00 W/m2
12:39 40.4 °F 39.6 °F 29.75 in East 17.0 mph 23.0 mph 97% 0.00 in 209.00 W/m2
12:44 40.4 °F 39.6 °F 29.75 in East 17.0 mph 23.0 mph 97% 0.00 in 88.00 W/m2
12:49 40.5 °F 39.7 °F 29.75 in East 17.0 mph 22.0 mph 97% 0.00 in 199.00 W/m2
12:54 40.7 °F 39.9 °F 29.75 in ESE 17.0 mph 24.0 mph 97% 0.00 in 234.00 W/m2
12:59 41.0 °F 40.2 °F 29.75 in ENE 17.0 mph 24.0 mph 97% 0.00 in 200.00 W/m2
13:04 41.2 °F 40.4 °F 29.75 in ESE 10.0 mph 22.0 mph 97% 0.00 in 204.00 W/m2
13:09 41.2 °F 40.4 °F 29.75 in ESE 16.0 mph 23.0 mph 97% 0.00 in 218.00 W/m2
13:14 41.4 °F 40.6 °F 29.74 in SE 14.0 mph 23.0 mph 97% 0.00 in 206.00 W/m2
13:19 41.5 °F 40.7 °F 29.75 in ESE 12.0 mph 23.0 mph 97% 0.00 in 179.00 W/m2
13:24 41.6 °F 40.8 °F 29.74 in East 15.0 mph 21.0 mph 97% 0.00 in 190.00 W/m2
13:29 41.7 °F 40.9 °F 29.74 in ESE 14.0 mph 21.0 mph 97% 0.00 in 206.00 W/m2
13:34 41.7 °F 40.9 °F 29.73 in East 20.0 mph 20.0 mph 97% 0.00 in 211.00 W/m2
13:39 41.9 °F 41.1 °F 29.73 in ESE 13.0 mph 20.0 mph 97% 0.00 in 218.00 W/m2
13:44 42.2 °F 41.4 °F 29.73 in East 18.0 mph 21.0 mph 97% 0.00 in 260.00 W/m2
13:49 42.2 °F 41.4 °F 29.73 in ESE 11.0 mph 22.0 mph 97% 0.00 in 264.00 W/m2
13:54 42.3 °F 41.5 °F 29.73 in East 16.0 mph 23.0 mph 97% 0.00 in 338.00 W/m2
13:59 42.9 °F 42.1 °F 29.73 in ESE 14.0 mph 23.0 mph 97% 0.00 in 294.00 W/m2
14:04 42.9 °F 42.1 °F 29.73 in ESE 13.0 mph 20.0 mph 97% 0.00 in 306.00 W/m2
14:09 43.0 °F 42.2 °F 29.73 in East 19.0 mph 21.0 mph 97% 0.00 in 295.00 W/m2
14:14 43.2 °F 42.4 °F 29.73 in East 11.0 mph 23.0 mph 97% 0.00 in 278.00 W/m2
14:19 43.8 °F 43.0 °F 29.73 in East 14.0 mph 23.0 mph 97% 0.00 in 218.00 W/m2
14:24 43.7 °F 42.9 °F 29.73 in ESE 17.0 mph 19.0 mph 97% 0.00 in 227.00 W/m2
14:29 43.6 °F 42.8 °F 29.73 in ESE 15.0 mph 21.0 mph 97% 0.00 in 241.00 W/m2
14:34 44.0 °F 43.2 °F 29.73 in SE 14.0 mph 21.0 mph 97% 0.00 in 246.00 W/m2
14:39 44.1 °F 43.3 °F 29.73 in ESE 12.0 mph 17.0 mph 97% 0.00 in 244.00 W/m2
14:44 44.4 °F 43.6 °F 29.73 in ESE 7.0 mph 17.0 mph 97% 0.00 in 230.00 W/m2
14:49 44.5 °F 43.7 °F 29.73 in East 11.0 mph 15.0 mph 97% 0.00 in 241.00 W/m2
14:54 44.7 °F 43.9 °F 29.73 in ESE 8.0 mph 15.0 mph 97% 0.00 in 225.00 W/m2
14:59 44.9 °F 44.1 °F 29.73 in ESE 10.0 mph 14.0 mph 97% 0.00 in 227.00 W/m2
15:04 45.1 °F 44.3 °F 29.73 in East 8.0 mph 15.0 mph 97% 0.00 in 206.00 W/m2
15:09 45.3 °F 44.5 °F 29.72 in ESE 10.0 mph 15.0 mph 97% 0.00 in 197.00 W/m2
15:14 45.5 °F 44.7 °F 29.72 in East 7.0 mph 14.0 mph 97% 0.00 in 200.00 W/m2
15:19 45.6 °F 44.8 °F 29.72 in ESE 10.0 mph 15.0 mph 97% 0.00 in 183.00 W/m2
15:24 45.7 °F 44.9 °F 29.72 in East 7.0 mph 15.0 mph 97% 0.00 in 192.00 W/m2
15:29 45.8 °F 44.7 °F 29.72 in East 10.0 mph 17.0 mph 96% 0.00 in 192.00 W/m2
15:34 46.1 °F 45.0 °F 29.71 in East 9.0 mph 17.0 mph 96% 0.00 in 197.00 W/m2
15:39 46.3 °F 45.2 °F 29.71 in ESE 8.0 mph 14.0 mph 96% 0.00 in 197.00 W/m2
15:44 46.7 °F 45.3 °F 29.71 in ESE 11.0 mph 16.0 mph 95% 0.00 in 193.00 W/m2
15:49 47.0 °F 45.6 °F 29.71 in SE 8.0 mph 16.0 mph 95% 0.00 in 213.00 W/m2
15:54 47.4 °F 46.0 °F 29.71 in East 9.0 mph 13.0 mph 95% 0.00 in 209.00 W/m2
15:59 47.5 °F 45.6 °F 29.70 in SE 9.0 mph 15.0 mph 93% 0.00 in 167.00 W/m2
16:04 47.6 °F 45.7 °F 29.70 in East 11.0 mph 15.0 mph 93% 0.00 in 100.00 W/m2
16:09 47.6 °F 45.4 °F 29.70 in ESE 7.0 mph 13.0 mph 92% 0.00 in 109.00 W/m2
16:14 47.8 °F 45.6 °F 29.70 in East 10.0 mph 14.0 mph 92% 0.00 in 149.00 W/m2
16:19 47.9 °F 45.4 °F 29.70 in East 11.0 mph 16.0 mph 91% 0.00 in 165.00 W/m2
16:24 48.2 °F 46.0 °F 29.70 in East 6.0 mph 16.0 mph 92% 0.00 in 181.00 W/m2
16:29 48.5 °F 46.0 °F 29.70 in East 10.0 mph 13.0 mph 91% 0.00 in 130.00 W/m2
16:34 48.6 °F 45.8 °F 29.69 in ESE 11.0 mph 14.0 mph 90% 0.00 in 165.00 W/m2
16:39 48.9 °F 46.1 °F 29.70 in ESE 7.0 mph 14.0 mph 90% 0.00 in 176.00 W/m2
16:44 49.1 °F 46.0 °F 29.69 in East 14.0 mph 15.0 mph 89% 0.00 in 156.00 W/m2
16:49 49.1 °F 46.0 °F 29.69 in East 13.0 mph 15.0 mph 89% 0.00 in 142.00 W/m2
16:54 49.0 °F 45.9 °F 29.70 in East 13.0 mph 15.0 mph 89% 0.00 in 95.00 W/m2
16:59 48.9 °F 46.7 °F 29.70 in ESE 4.0 mph 14.0 mph 92% 0.00 in 93.00 W/m2
17:04 48.9 °F 45.8 °F 29.71 in ESE 7.0 mph 13.0 mph 89% 0.00 in 86.00 W/m2
17:09 49.0 °F 45.9 °F 29.71 in SE 4.0 mph 11.0 mph 89% 0.00 in 79.00 W/m2
17:14 49.0 °F 45.9 °F 29.71 in SE 6.0 mph 10.0 mph 89% 0.00 in 79.00 W/m2
17:19 49.0 °F 45.9 °F 29.71 in ESE 8.0 mph 11.0 mph 89% 0.00 in 90.00 W/m2
17:24 49.0 °F 45.6 °F 29.70 in ESE 7.0 mph 11.0 mph 88% 0.00 in 93.00 W/m2
17:29 49.0 °F 45.6 °F 29.70 in East 5.0 mph 10.0 mph 88% 0.00 in 79.00 W/m2
17:34 49.2 °F 46.1 °F 29.70 in East 5.0 mph 10.0 mph 89% 0.00 in 79.00 W/m2
17:39 49.3 °F 45.9 °F 29.70 in ESE 5.0 mph 13.0 mph 88% 0.00 in 79.00 W/m2
17:44 49.3 °F 45.9 °F 29.70 in East 5.0 mph 13.0 mph 88% 0.00 in 51.00 W/m2
17:49 49.2 °F 45.8 °F 29.70 in ESE 3.0 mph 10.0 mph 88% 0.00 in 40.00 W/m2
17:54 49.2 °F 45.8 °F 29.70 in ESE 9.0 mph 10.0 mph 88% 0.00 in 67.00 W/m2
17:59 49.2 °F 45.8 °F 29.70 in East 6.0 mph 10.0 mph 88% 0.00 in 63.00 W/m2
18:04 49.2 °F 45.8 °F 29.70 in ESE 13.0 mph 14.0 mph 88% 0.00 in 44.00 W/m2
18:09 49.2 °F 45.8 °F 29.70 in East 6.0 mph 14.0 mph 88% 0.00 in 37.00 W/m2
18:14 49.1 °F 45.7 °F 29.70 in East 7.0 mph 14.0 mph 88% 0.00 in 26.00 W/m2
18:19 49.0 °F 45.6 °F 29.70 in East 5.0 mph 11.0 mph 88% 0.00 in 25.00 W/m2
18:24 48.8 °F 45.4 °F 29.70 in ESE 10.0 mph 11.0 mph 88% 0.00 in 21.00 W/m2
18:29 48.7 °F 45.3 °F 29.70 in ESE 10.0 mph 13.0 mph 88% 0.00 in 23.00 W/m2
18:34 48.6 °F 45.2 °F 29.70 in ESE 9.0 mph 13.0 mph 88% 0.00 in 23.00 W/m2
18:39 48.5 °F 45.4 °F 29.71 in SE 8.0 mph 13.0 mph 89% 0.00 in 18.00 W/m2
18:44 48.4 °F 45.3 °F 29.71 in ESE 10.0 mph 11.0 mph 89% 0.00 in 16.00 W/m2
18:49 48.3 °F 45.2 °F 29.71 in ESE 7.0 mph 13.0 mph 89% 0.00 in 16.00 W/m2
18:54 48.1 °F 45.0 °F 29.71 in ESE 7.0 mph 13.0 mph 89% 0.00 in 14.00 W/m2
18:59 48.0 °F 44.9 °F 29.71 in East 9.0 mph 11.0 mph 89% 0.00 in 16.00 W/m2
19:04 47.8 °F 44.7 °F 29.71 in ESE 7.0 mph 11.0 mph 89% 0.00 in 19.00 W/m2
19:09 47.6 °F 44.8 °F 29.70 in East 7.0 mph 11.0 mph 90% 0.00 in 26.00 W/m2
19:14 47.1 °F 44.6 °F 29.70 in East 8.0 mph 13.0 mph 91% 0.00 in 19.00 W/m2
19:19 46.7 °F 44.2 °F 29.70 in ENE 8.0 mph 13.0 mph 91% 0.00 in 19.00 W/m2
19:24 46.5 °F 44.3 °F 29.70 in ENE 8.0 mph 11.0 mph 92% 0.00 in 18.00 W/m2
19:29 46.3 °F 44.1 °F 29.70 in East 8.0 mph 13.0 mph 92% 0.00 in 12.00 W/m2
19:34 46.2 °F 44.3 °F 29.70 in ENE 9.0 mph 13.0 mph 93% 0.00 in 14.00 W/m2
19:39 46.1 °F 44.2 °F 29.70 in ENE 7.0 mph 13.0 mph 93% 0.00 in 16.00 W/m2
19:44 46.0 °F 44.1 °F 29.69 in East 8.0 mph 14.0 mph 93% 0.00 in 14.00 W/m2
19:49 45.9 °F 44.3 °F 29.69 in East 9.0 mph 14.0 mph 94% 0.01 in 7.00 W/m2
19:54 45.8 °F 44.2 °F 29.69 in East 7.0 mph 11.0 mph 94% 0.01 in 5.00 W/m2
19:59 45.8 °F 44.2 °F 29.69 in ENE 8.0 mph 10.0 mph 94% 0.01 in 7.00 W/m2
20:04 45.8 °F 44.2 °F 29.69 in East 7.0 mph 11.0 mph 94% 0.01 in 5.00 W/m2
20:09 45.9 °F 44.5 °F 29.70 in ENE 5.0 mph 11.0 mph 95% 0.01 in 0.00 W/m2
20:14 46.0 °F 44.6 °F 29.69 in ENE 10.0 mph 11.0 mph 95% 0.01 in 0.00 W/m2
20:19 46.0 °F 44.6 °F 29.69 in East 11.0 mph 13.0 mph 95% 0.01 in 0.00 W/m2
20:24 45.8 °F 44.4 °F 29.69 in East 9.0 mph 14.0 mph 95% 0.01 in 0.00 W/m2
20:29 45.6 °F 44.3 °F 29.69 in East 13.0 mph 14.0 mph 95% 0.01 in 0.00 W/m2
20:34 45.5 °F 44.2 °F 29.70 in East 7.0 mph 14.0 mph 95% 0.01 in 0.00 W/m2
20:39 45.3 °F 44.0 °F 29.70 in East 10.0 mph 13.0 mph 95% 0.01 in 0.00 W/m2
20:44 45.2 °F 43.9 °F 29.70 in East 9.0 mph 13.0 mph 95% 0.00 in 0.00 W/m2
20:49 45.1 °F 43.8 °F 29.70 in East 8.0 mph 11.0 mph 95% 0.00 in 0.00 W/m2
20:54 45.0 °F 43.7 °F 29.70 in East 6.0 mph 10.0 mph 95% 0.00 in 0.00 W/m2
20:59 44.9 °F 43.6 °F 29.71 in East 5.0 mph 10.0 mph 95% 0.00 in 0.00 W/m2
21:04 44.9 °F 43.6 °F 29.71 in ESE 3.0 mph 10.0 mph 95% 0.00 in 0.00 W/m2
21:09 44.9 °F 43.6 °F 29.71 in ESE 8.0 mph 10.0 mph 95% 0.00 in 0.00 W/m2
21:14 44.8 °F 43.5 °F 29.71 in ESE 4.0 mph 10.0 mph 95% 0.00 in 0.00 W/m2
21:19 44.7 °F 43.6 °F 29.72 in ESE 4.0 mph 10.0 mph 96% 0.00 in 0.00 W/m2
21:24 44.7 °F 43.4 °F 29.72 in ESE 3.0 mph 8.0 mph 95% 0.00 in 0.00 W/m2
21:29 44.6 °F 43.3 °F 29.72 in ESE 4.0 mph 8.0 mph 95% 0.00 in 0.00 W/m2
21:34 44.6 °F 43.3 °F 29.72 in East 6.0 mph 8.0 mph 95% 0.00 in 0.00 W/m2
21:39 44.6 °F 43.3 °F 29.71 in East 5.0 mph 9.0 mph 95% 0.00 in 0.00 W/m2
21:44 44.5 °F 43.4 °F 29.72 in East 5.0 mph 9.0 mph 96% 0.00 in 0.00 W/m2
21:49 44.4 °F 43.3 °F 29.72 in East 6.0 mph 8.0 mph 96% 0.00 in 0.00 W/m2
21:54 44.3 °F 43.2 °F 29.72 in East 7.0 mph 8.0 mph 96% 0.00 in 0.00 W/m2
21:59 44.2 °F 43.1 °F 29.72 in East 6.0 mph 8.0 mph 96% 0.00 in 0.00 W/m2
22:04 44.1 °F 43.0 °F 29.72 in East 5.0 mph 8.0 mph 96% 0.00 in 0.00 W/m2
22:09 44.1 °F 43.0 °F 29.72 in ENE 5.0 mph 8.0 mph 96% 0.00 in 0.00 W/m2
22:14 44.0 °F 42.9 °F 29.72 in East 3.0 mph 7.0 mph 96% 0.00 in 0.00 W/m2
22:19 44.0 °F 42.9 °F 29.72 in East 5.0 mph 7.0 mph 96% 0.01 in 0.00 W/m2
22:24 43.9 °F 42.8 °F 29.73 in ENE 3.0 mph 7.0 mph 96% 0.01 in 0.00 W/m2
22:29 44.0 °F 42.9 °F 29.73 in East 3.0 mph 7.0 mph 96% 0.01 in 0.00 W/m2
22:34 44.0 °F 42.9 °F 29.73 in East 2.0 mph 6.0 mph 96% 0.01 in 0.00 W/m2
22:39 44.0 °F 42.9 °F 29.74 in WNW 4.0 mph 5.0 mph 96% 0.01 in 0.00 W/m2
22:44 44.0 °F 42.9 °F 29.74 in WNW 3.0 mph 5.0 mph 96% 0.01 in 0.00 W/m2
22:49 44.0 °F 42.9 °F 29.74 in WNW 1.0 mph 5.0 mph 96% 0.01 in 0.00 W/m2
22:54 43.9 °F 42.8 °F 29.74 in WNW 2.0 mph 3.0 mph 96% 0.01 in 0.00 W/m2
22:59 43.8 °F 42.7 °F 29.74 in WNW 2.0 mph 3.0 mph 96% 0.01 in 0.00 W/m2
23:04 43.7 °F 42.6 °F 29.74 in WNW 2.0 mph 3.0 mph 96% 0.01 in 0.00 W/m2
23:09 43.6 °F 42.5 °F 29.74 in WNW 2.0 mph 3.0 mph 96% 0.01 in 0.00 W/m2
23:14 43.5 °F 42.4 °F 29.74 in Calm   3.0 mph 96% 0.01 in 0.00 W/m2
23:19 43.5 °F 42.4 °F 29.74 in WNW 1.0 mph 2.0 mph 96% 0.00 in 0.00 W/m2
23:24 43.4 °F 42.3 °F 29.74 in WNW 1.0 mph 2.0 mph 96% 0.00 in 0.00 W/m2
23:29 43.4 °F 42.3 °F 29.74 in WNW 2.0 mph 2.0 mph 96% 0.00 in 0.00 W/m2
23:34 43.4 °F 42.3 °F 29.73 in NE 3.0 mph 4.0 mph 96% 0.00 in 0.00 W/m2
23:39 43.3 °F 42.2 °F 29.73 in NE 4.0 mph 4.0 mph 96% 0.00 in 0.00 W/m2
23:44 43.3 °F 42.2 °F 29.73 in NE 3.0 mph 4.0 mph 96% 0.00 in 0.00 W/m2
23:49 43.2 °F 42.1 °F 29.73 in ENE 2.0 mph 4.0 mph 96% 0.00 in 0.00 W/m2
23:54 43.3 °F 42.2 °F 29.72 in ENE 4.0 mph 5.0 mph 96% 0.00 in 0.00 W/m2
23:59 43.3 °F 42.2 °F 29.72 in ENE 3.0 mph 5.0 mph 96% 0.00 in 0.00 W/m2
Bismarck, North Dakota, USA
Compliments of Weather Underground - 4 mb